sat.trackr.live / text

‹ back to catalog

STARLINK-3160

NORAD 49454 · 2021-104AY

PAYLOAD ACTIVE UNKNOWN

§ Identity

Operator
Country
US
Launch date
2021-11-13
Launch site
AFETR
Launch vehicle
Mass (kg)
RCS (m²)

Purposes: comms

External: N2YO · Heavens-Above · Gunter

§ Orbital elements

Epoch: 2026-05-24T23:37:50.094912Z

Period
95.44 min
Inclination
53.2151°
Eccentricity
0.0001139
Mean motion
15.08840128 rev/d
Perigee alt
539.0 km
Apogee alt
540.5 km
Semi-major
6,917.9 km
B*
4.3399e-6
RAAN
236.6173°
Arg perigee
86.0910°
Mean anomaly
274.0213°
Rev number
25,029

§ Raw data

STARLINK-31601 49454U 21104AY  26144.98460758 -.00000219  00000+0  43399-5 0  99932 49454  53.2151 236.6173 0001139  86.0910 274.0213 15.08840128250295

JSON: /api/v1/satellites/49454 · /tle

For live sub-satellite position, see the globe view (requires WebGL).

§ Visibility from observer

Set your observer location to see the next 7 days of passes ≥ 10°. The values pass through the URL so the page stays shareable.

No JS? Fill the form by hand. The geolocation button needs JavaScript.